Location: Auckland
(36.8670°S, 174.7670°E)
Time: 08:17:24
(UTC+12:00)

Tiros 1 despin weight - Pass Details

Date: 28 July 2019
Orbit: 594 x 642 km, 48.2° (Epoch: 24 August)

Event Time Altitude Azimuth Distance (km) Brightness Sun altitude
Rises 19:43:00 0° 345° (NNW) 2,846 ? -26.1°
Enters shadow 19:45:33 - 360° (N) 2,015 ? -26.6°
Reaches altitude 10° 19:45:48 10° 2° (N) 1,943 - -26.7°
Maximum altitude 19:49:00 19° 48° (NE) 1,429 - -27.3°
Drops below altitude 10° 19:52:12 10° 94° (E) 1,946 - -28.0°
Sets 19:55:00 0° 111° (ESE) 2,853 - -28.5°
